Temp
16 17 17 17 17 17 17 17 18 18 18 18 19 19 19 19 20 20 18 19 19 19 20 21 22 22 22 19 18 17 16 16 18 17 19 19 20 19 16 16 15 14 14 14 13
16 17 17 17 17 17 17 17 18 18 18 19 19 19 19 19 19 18 19 19 19 19 20 20 21 21 18 20 17 16 15 17 18 18 18 19 19 18 17 16 15 14 12 13 13
16 16 17 17 17 17 17 17 18 18 18 18 19 19 19 19 19 19 19 19 19 20 20 20 20 21 20 19 18 17 17 17 18 18 18 19 18 17 15 17 15 14 12 12 12
16 16 16 17 17 18 18 18 18 18 18 18 18 19 19 19 21 19 19 20 20 20 20 20 20 20 19 19 18 18 17 18 18 18 18 18 17 16 17 17 17 13 13 12 11
16 16 16 17 17 17 18 18 18 18 18 18 18 19 19 19 19 19 19 20 20 20 19 20 21 20 19 18 18 17 17 17 17 17 17 17 17 16 16 16 15 13 13 11 10
15 16 17 17 17 17 18 18 18 19 18 19 19 19 19 19 19 19 19 20 20 20 19 20 20 19 18 18 18 17 16 16 18 18 18 16 16 17 16 14 12 12 10 10 10
15 16 17 18 18 18 18 18 19 19 19 19 19 19 19 20 19 19 19 19 19 19 19 19 19 20 18 18 16 16 17 18 17 17 18 16 16 15 15 13 12 11 10 10 10
15 15 16 17 17 18 18 19 19 19 19 19 19 19 18 19 19 19 20 20 20 20 20 20 20 17 18 16 17 17 16 17 17 17 17 17 16 15 13 12 10 10 10 9 9
15 15 16 17 17 18 18 19 19 19 19 19 19 19 19 19 19 19 19 19 20 20 20 20 19 16 17 16 15 15 17 16 18 16 17 16 16 15 12 12 10 9 8 9 8
15 16 15 16 17 18 18 19 19 19 19 19 18 19 18 19 19 18 18 19 19 19 19 18 14 15 13 15 16 16 17 18 17 16 16 15 14 14 12 11 9 8 7 7 7
15 15 16 16 17 18 19 19 17 17 18 19 18 18 18 18 18 18 18 18 18 18 19 16 16 16 16 16 17 17 17 18 17 15 15 13 13 13 11 11 8 7 7 7 7
15 15 16 16 17 17 18 16 16 16 18 17 17 17 18 18 18 18 18 19 19 18 18 16 17 16 16 16 17 17 17 17 16 15 15 14 13 12 11 10 8 8 7 7 7
15 15 16 17 17 17 16 15 15 15 17 17 17 18 17 17 17 18 17 18 18 18 17 17 17 15 17 16 16 16 16 15 16 13 13 12 12 12 11 11 9 8 8 7 7
14 15 16 16 16 15 15 14 15 15 15 18 17 18 17 16 18 17 17 18 17 16 15 16 16 16 16 16 15 17 14 14 14 13 14 13 14 13 10 10 9 8 7 7 7
14 15 15 15 13 14 14 15 15 15 14 18 17 17 17 17 17 17 17 18 16 16 16 16 15 15 16 16 15 16 14 14 14 12 12 13 12 12 10 10 9 8 7 7 6
14 14 15 15 14 14 14 14 15 14 15 17 16 16 17 17 17 17 17 16 15 16 14 14 14 15 15 14 15 13 13 11 9 10 10 13 12 14 11 11 12 9 8 7 7
14 15 15 16 14 15 14 13 14 12 18 17 16 16 16 16 16 16 16 15 15 14 15 15 15 14 14 14 14 14 12 12 12 10 13 12 11 13 14 11 12 11 8 7 7
12 14 15 15 15 14 14 14 14 16 16 16 16 16 16 15 16 15 14 15 13 14 9 13 14 13 13 14 13 13 13 11 15 12 11 11 11 14 12 11 10 10 8 7 7
11 13 15 15 14 14 11 11 14 15 17 15 16 16 15 15 16 15 13 14 13 12 16 12 15 13 13 13 14 13 13 12 10 9 8 11 11 12 10 10 11 9 8 7 7
10 11 12 13 13 13 11 13 14 16 15 16 17 16 15 14 15 14 13 14 14 12 13 14 14 13 12 13 12 13 11 12 10 12 12 11 10 12 10 9 9 9 8 8 7
10 10 12 12 13 10 10 11 15 15 16 16 16 15 16 14 14 14 15 14 13 12 13 12 14 12 12 11 11 11 11 11 10 10 10 9 12 10 12 10 9 8 8 7 6
10 11 11 12 11 8 10 12 15 14 14 15 15 16 15 14 14 13 14 14 12 11 13 12 11 11 12 12 11 12 11 11 11 11 6 5 10 11 11 10 9 8 8 7 5
8 9 10 10 11 10 10 13 14 13 13 14 14 14 15 15 16 14 13 12 11 12 11 11 11 12 13 12 11 11 11 11 9 8 8 8 12 9 9 10 9 8 6 5 3
8 9 9 8 9 13 13 12 13 12 14 14 14 14 14 14 13 13 13 12 12 12 12 13 10 13 14 15 10 10 10 10 11 8 9 11 12 10 10 9 8 7 5 3 2
8 9 10 10 9 11 12 14 14 13 12 13 13 13 14 14 13 13 11 11 11 12 10 11 11 10 10 11 11 11 12 10 11 12 10 14 11 14 10 9 7 6 3 2 0
6 8 9 8 11 11 12 12 12 13 12 12 13 14 13 14 15 13 11 10 12 9 9 8 10 9 11 10 9 9 9 11 11 11 11 12 13 12 6 4 5 3 3 2 1
6 5 5 9 11 10 11 12 14 13 13 13 14 13 12 13 13 12 11 10 11 9 9 8 8 8 10 9 9 10 12 11 12 9 11 10 12 7 6 6 4 3 2 1 -0
Height
815 814 813 813 812 811 811 810 809 809 808 807 807 806 805 805 803 802 802 802 800 798 797 796 796 795 795 798 800 805 832 843 836 840 828 823 826 826 828 832 834 835 836 835 843
816 814 813 813 812 811 811 810 809 808 808 807 806 806 806 805 805 803 803 800 798 798 797 796 797 796 803 803 807 817 835 832 825 825 827 824 824 826 831 835 839 838 838 839 843
816 815 814 813 811 811 810 810 810 809 808 807 806 805 805 805 806 803 801 799 798 798 798 798 798 799 805 807 812 818 828 824 823 821 821 823 825 828 834 835 835 837 840 841 844
817 815 813 812 811 810 809 809 809 808 808 806 805 805 805 805 814 802 801 799 798 798 799 798 799 805 813 815 814 822 823 820 821 820 821 824 826 830 829 829 826 830 835 840 844
818 815 813 812 810 809 808 808 808 807 807 806 805 805 805 806 805 802 801 799 799 798 799 799 801 805 814 814 815 822 823 822 822 822 822 823 827 829 829 828 828 832 836 840 844
820 816 813 811 809 808 808 807 806 806 806 805 805 804 804 810 802 801 800 800 799 799 798 798 800 802 811 815 817 820 823 824 822 822 822 828 829 827 829 829 833 834 838 841 843
821 817 813 810 808 807 806 806 806 806 805 804 804 803 803 802 800 800 799 799 799 799 798 798 799 801 808 817 819 822 829 826 825 824 825 827 834 832 828 831 834 837 839 842 843
821 817 813 810 807 806 805 805 805 804 804 804 803 802 804 800 799 799 798 799 799 798 799 799 800 804 810 816 821 826 832 838 826 825 825 828 835 828 828 831 837 839 840 842 844
821 817 813 810 807 805 804 803 804 803 802 803 803 802 803 800 799 798 798 798 798 799 799 800 801 812 815 827 836 836 838 837 829 826 827 831 829 825 829 832 838 841 842 842 844
820 817 813 810 807 804 802 802 802 802 801 802 803 806 801 800 798 798 798 798 798 799 801 803 813 822 829 832 846 836 835 829 829 828 828 830 830 827 829 831 837 840 842 843 844
820 816 812 808 805 804 802 801 805 805 799 797 799 800 797 798 798 797 798 798 799 801 810 811 821 828 823 823 823 825 826 827 826 828 831 833 832 825 826 829 838 840 841 843 843
820 816 811 806 804 803 803 801 801 803 802 795 796 797 797 796 798 796 796 801 801 810 809 818 823 820 821 822 822 824 827 829 829 828 831 830 825 821 823 824 829 831 837 839 841
818 814 811 806 802 803 803 803 802 801 805 796 794 794 795 797 798 797 796 797 803 811 813 818 817 818 818 824 825 829 829 832 832 835 833 834 825 819 819 821 825 829 830 834 836
817 813 810 806 806 804 803 803 803 803 818 800 796 792 793 795 798 795 795 797 804 813 818 817 816 817 819 822 826 825 829 831 834 840 840 834 835 816 823 824 825 827 829 830 832
815 812 809 807 809 807 806 803 804 805 848 795 795 792 791 797 797 796 795 795 805 810 814 817 820 819 819 818 823 824 828 832 835 842 847 838 844 815 824 822 819 822 824 826 827
812 810 807 807 807 807 806 805 805 828 836 797 792 796 797 795 796 796 796 796 802 808 814 817 817 817 816 820 822 829 833 842 853 856 860 834 838 814 817 807 803 812 816 819 822
809 806 804 802 804 805 806 807 828 841 790 796 795 795 796 799 799 799 802 805 811 823 819 818 818 818 818 823 825 827 837 851 853 863 840 835 847 807 796 803 801 802 810 814 817
806 802 798 798 799 803 806 815 826 796 791 786 789 793 798 797 797 800 807 808 808 807 837 825 827 820 818 817 822 829 831 848 839 852 846 843 834 799 798 800 800 799 803 809 814
805 797 790 791 793 799 810 827 807 792 777 788 789 794 797 794 795 799 806 803 798 802 804 823 812 818 818 819 820 828 832 830 850 864 874 834 819 797 802 801 800 802 805 809 811
805 799 783 786 791 796 809 804 791 775 778 780 782 782 792 796 799 800 802 789 791 795 796 802 813 819 820 819 823 824 828 836 849 846 841 830 830 804 802 802 802 804 806 807 810
804 800 781 778 788 798 804 797 778 770 771 778 777 781 780 789 792 796 790 785 788 797 797 802 804 823 819 821 822 830 828 832 837 845 846 854 809 795 787 793 797 801 802 805 810
794 794 783 780 789 800 790 781 767 768 770 772 771 771 776 780 787 790 785 781 783 790 796 800 811 825 815 812 814 814 815 820 829 829 864 868 817 788 788 788 794 797 800 804 809
792 781 781 783 776 790 784 770 765 769 768 769 771 768 767 772 776 778 779 782 782 786 790 797 809 817 809 814 816 816 814 813 824 834 844 845 796 795 792 791 793 797 803 807 812
792 779 776 778 768 757 767 767 762 759 758 759 760 763 766 769 770 775 779 782 784 784 785 786 803 795 796 788 806 813 812 814 811 839 823 803 785 794 792 793 795 797 803 809 814
790 772 757 760 762 755 756 749 751 757 756 755 760 757 758 766 771 770 779 787 786 783 790 791 798 805 801 798 797 797 798 809 807 791 803 770 784 771 785 789 791 795 806 811 816
790 775 763 756 743 746 749 744 750 746 748 749 748 746 753 751 748 760 772 779 773 789 790 797 797 804 795 800 805 804 802 793 791 788 788 775 769 769 790 794 795 799 803 809 815
781 778 777 755 745 742 734 733 733 738 736 733 735 743 751 743 746 751 754 759 761 775 788 796 804 806 798 802 803 797 766 776 770 780 773 783 756 782 787 789 794 800 803 809 814
Wind_Speed
7 5 3 1 1 3 5 4 2 3 4 4 3 3 2 2 5 2 2 5 5 7 7 7 3 4 3 4 5 3 5 3 6 7 4 2 3 2 2 6 3 4 4 10 27
8 6 4 2 1 1 3 4 4 4 5 4 5 4 3 2 4 3 7 8 6 5 3 6 3 5 4 3 4 5 4 8 4 4 5 3 3 4 4 3 4 4 12 26 27
11 8 6 3 2 2 3 3 4 4 4 6 5 3 3 2 3 2 9 8 5 3 2 1 2 2 3 3 4 2 3 5 1 3 4 4 2 2 8 1 6 9 11 15 18
15 11 7 3 2 3 2 3 2 3 3 4 4 2 1 1 2 2 8 6 3 4 3 1 1 3 3 3 2 5 2 2 4 1 4 4 5 3 2 5 5 11 15 12 12
21 13 9 5 4 3 2 2 2 1 3 5 4 1 2 1 4 4 6 4 1 4 2 3 3 4 5 4 3 4 3 3 3 5 4 5 3 5 2 1 2 12 10 10 12
23 19 12 7 5 4 3 3 3 2 4 4 3 3 2 2 0 6 5 2 3 4 3 2 4 4 5 3 2 3 4 5 2 1 2 4 1 2 4 2 7 10 9 8 14
26 23 17 8 6 4 4 4 4 4 4 4 3 1 2 3 0 6 3 2 5 2 2 2 4 3 4 4 4 6 5 2 1 2 2 6 2 5 4 6 9 9 9 8 11
26 26 21 11 6 5 4 5 4 4 4 3 3 0 4 1 2 5 3 0 3 4 5 4 8 6 4 4 5 3 4 2 3 4 2 4 7 5 6 10 8 8 8 9 7
25 26 22 15 9 5 5 6 6 4 5 4 2 2 4 1 2 3 4 1 2 3 3 4 4 4 4 5 4 4 3 4 2 5 3 5 6 5 7 8 8 7 7 8 7
25 25 25 19 12 6 5 6 4 4 2 2 1 2 1 3 1 4 1 1 3 1 3 5 5 4 3 3 5 6 4 4 4 4 3 4 10 3 6 7 10 9 7 7 7
25 26 26 22 12 7 5 2 3 2 1 4 2 2 1 2 1 3 2 1 1 5 3 3 4 4 5 3 1 3 3 3 1 3 3 7 8 9 9 5 8 9 8 8 8
25 26 26 23 13 7 5 1 2 1 4 4 2 2 2 2 2 2 2 3 3 3 3 4 3 4 3 1 2 2 2 3 3 1 1 4 12 8 8 6 7 13 10 10 6
24 25 26 25 8 3 4 0 1 0 1 4 4 3 3 4 3 3 1 4 3 4 2 5 2 5 3 2 4 1 4 3 3 5 2 5 7 2 3 3 4 7 8 5 9
23 23 25 27 3 8 3 1 1 1 3 4 4 3 3 4 2 2 1 3 3 6 5 2 3 5 3 2 3 3 4 3 1 4 3 2 5 4 4 5 5 8 9 10 9
21 21 21 18 11 6 3 1 0 1 3 2 3 2 3 4 4 1 1 2 6 6 5 4 6 4 4 4 5 3 2 2 2 2 4 1 1 6 2 6 11 10 10 10 9
19 19 20 13 10 7 3 1 1 5 7 4 5 5 3 3 2 2 1 4 4 4 4 3 1 1 3 2 3 5 4 5 4 3 2 2 4 5 5 5 2 5 12 11 9
20 18 17 9 1 3 2 1 4 4 1 5 5 5 4 5 3 4 3 3 5 4 4 1 2 1 2 4 2 3 4 2 4 2 5 1 1 9 4 5 4 6 10 11 9
22 19 12 8 5 3 2 3 4 5 6 2 4 4 6 7 4 4 5 4 4 3 3 6 5 8 4 3 6 5 6 5 6 3 4 4 6 6 3 2 1 3 6 8 8
25 15 6 4 11 10 4 3 8 7 4 10 3 4 5 4 5 4 7 6 8 10 9 6 3 2 2 1 2 4 4 3 6 2 3 3 7 7 1 4 1 4 5 8 8
17 12 5 7 14 10 3 8 6 4 5 3 10 7 8 6 6 7 8 4 5 7 1 5 3 0 2 2 3 1 4 4 2 2 5 5 6 6 6 8 6 6 7 7 4
9 4 7 19 14 2 5 8 8 6 5 7 8 5 5 7 8 5 5 2 4 6 4 4 3 1 2 7 8 3 3 3 4 4 4 2 6 6 5 8 11 9 8 6 6
5 3 9 20 4 3 5 7 5 5 2 6 2 6 9 9 8 6 9 4 8 9 9 6 4 4 6 2 2 3 6 6 4 5 2 3 7 1 3 4 7 8 6 4 6
3 4 11 8 7 8 6 6 6 6 6 8 8 7 5 8 4 8 6 3 8 8 9 8 3 2 3 2 0 5 5 4 5 3 7 5 6 1 1 2 4 7 6 6 7
3 3 3 2 3 15 13 6 7 6 5 6 4 4 4 6 3 6 5 1 3 3 4 5 3 5 6 3 5 5 5 6 6 3 5 10 5 4 6 7 6 5 6 7 7
3 4 4 6 8 15 5 7 15 8 6 8 4 8 8 7 5 6 4 3 2 7 3 5 6 3 3 4 2 4 5 9 15 15 9 5 11 7 8 10 9 7 7 7 7
3 3 3 4 5 17 17 13 9 5 10 7 7 11 9 8 10 10 8 6 6 4 6 3 4 3 2 1 4 5 10 12 18 18 16 20 24 4 4 5 5 7 8 7 7
6 7 5 6 9 6 9 19 23 6 7 6 17 6 10 17 5 1 2 5 9 11 8 8 6 4 4 0 3 7 14 18 12 8 18 16 21 6 5 6 6 6 7 7 6
Wind_Direction
36 29 28 61 157 205 200 212 274 323 334 340 347 344 54 103 46 230 28 324 317 327 327 326 71 23 51 62 50 112 66 158 189 154 213 177 137 136 55 88 52 356 145 146 149
28 30 10 349 288 241 251 249 266 292 315 326 325 311 291 290 309 31 352 346 336 329 341 26 24 14 39 33 22 75 111 198 184 177 173 150 122 128 91 66 40 52 76 131 148
22 9 356 336 301 278 272 279 287 307 326 326 326 311 297 303 11 271 346 337 320 298 274 354 358 44 63 44 12 87 159 171 144 153 141 128 81 81 125 106 190 173 155 145 148
18 12 8 356 320 290 278 288 289 315 334 340 334 319 311 142 208 318 341 333 299 275 233 160 107 74 75 97 36 94 76 155 171 113 110 138 123 90 163 199 191 168 153 148 140
18 10 1 346 321 275 261 222 278 278 343 336 339 314 190 82 252 335 348 350 277 183 206 181 135 125 135 124 95 94 155 87 109 111 107 109 139 159 176 276 87 130 131 137 132
16 11 357 340 320 289 254 241 205 222 321 332 348 326 161 260 338 338 344 25 54 182 166 142 162 161 108 84 98 120 113 127 154 100 86 116 166 38 234 129 110 126 128 131 141
13 9 1 345 323 286 267 233 203 292 308 322 317 338 120 218 132 5 345 23 32 121 124 111 137 76 124 94 156 134 87 46 226 200 167 124 258 229 158 135 131 132 135 133 151
9 9 5 352 334 299 266 220 255 288 287 300 297 235 244 272 280 349 9 18 48 80 102 89 116 104 75 120 48 75 63 125 231 155 187 123 269 197 172 143 151 147 145 149 157
4 6 3 353 336 304 281 257 277 283 265 278 245 162 264 240 308 348 4 7 354 76 85 100 79 86 47 94 39 4 200 199 260 203 151 174 263 200 179 166 167 167 165 164 153
1 360 1 357 340 310 292 279 243 300 186 206 256 41 247 211 273 334 341 24 88 31 58 50 52 81 49 97 207 198 205 232 209 213 195 239 259 209 213 181 186 179 177 176 171
355 357 356 352 338 316 328 248 12 317 122 201 211 258 200 282 251 31 2 74 97 63 162 26 84 208 201 176 155 147 160 201 229 160 204 233 254 234 212 185 176 185 185 190 189
352 351 351 349 339 322 307 111 134 198 298 198 212 248 253 150 149 229 25 158 160 173 121 39 209 173 131 66 145 139 139 246 285 88 287 293 271 240 197 206 182 185 191 192 181
348 348 347 346 338 349 358 335 137 141 247 248 200 186 195 166 206 223 147 143 131 137 180 165 170 145 142 78 145 185 185 195 223 327 266 324 285 227 220 155 173 197 195 186 189
345 346 347 346 8 343 337 252 228 357 47 241 222 240 126 128 237 195 231 144 71 163 147 168 162 156 142 183 145 216 141 115 67 45 258 51 281 287 228 224 220 206 194 198 204
339 343 343 351 322 314 314 179 299 16 1 168 175 150 140 163 136 239 134 69 161 152 128 241 170 170 168 199 173 207 124 110 102 88 10 278 95 267 111 246 231 216 209 209 208
331 337 336 339 314 291 280 254 47 49 256 185 150 180 146 168 189 122 137 47 132 106 58 146 344 183 183 106 117 134 87 50 52 84 350 239 146 275 198 214 237 192 207 203 204
320 326 325 323 264 310 250 9 51 154 342 201 193 166 192 174 184 172 173 170 160 110 206 44 214 196 154 110 54 105 85 326 344 11 227 98 84 250 237 222 226 214 200 196 197
315 316 311 284 231 217 142 52 198 230 203 126 138 113 188 163 207 157 142 217 227 121 115 162 289 175 177 211 172 179 165 162 223 213 260 317 236 254 210 179 302 236 187 174 193
315 298 285 231 204 176 89 192 208 209 173 151 78 162 221 208 170 163 201 212 201 179 179 152 258 73 65 109 105 183 193 149 104 52 38 233 287 287 179 237 187 139 150 193 207
312 292 228 184 165 140 114 228 231 215 132 167 187 167 185 188 171 180 187 204 197 182 172 193 114 279 136 108 26 181 165 77 17 181 255 279 275 244 223 224 218 211 208 217 192
288 285 190 155 142 80 197 223 241 217 167 181 210 168 193 177 185 200 212 235 168 156 135 140 113 235 129 197 177 155 198 82 120 162 193 261 259 214 221 203 201 210 213 207 181
205 242 180 160 106 263 209 195 209 198 157 224 195 203 183 173 184 214 219 231 164 151 162 184 127 179 199 186 187 205 197 162 143 211 219 157 269 336 271 226 185 203 201 186 164
262 211 182 267 167 223 273 241 216 166 202 188 218 205 179 177 207 192 196 337 155 164 159 180 185 95 334 4 300 217 200 160 105 94 201 144 258 63 308 137 179 168 154 145 128
286 239 173 226 307 206 215 240 223 204 196 180 189 146 144 196 240 189 163 89 164 138 120 116 162 192 195 167 130 193 204 184 156 164 169 229 283 207 227 215 209 185 158 144 139
271 258 218 193 225 217 205 194 217 203 220 179 200 210 179 179 162 188 139 142 33 149 92 140 204 182 234 230 203 192 200 192 210 216 196 247 227 261 211 219 219 191 143 141 135
261 273 313 291 178 201 216 227 200 222 160 214 202 201 200 176 188 187 144 188 187 179 150 184 184 142 273 105 201 264 223 226 230 234 245 256 269 292 96 97 136 152 154 151 151
218 303 324 293 256 169 209 223 231 188 224 198 203 150 196 223 167 19 139 137 158 151 164 156 142 133 245 38 325 286 245 217 230 206 220 237 247 159 178 173 170 159 153 152 141